Location: Alphen
(52.1351°N, 4.6549°E)
Time: 01:54:16
(UTC+00:00)

Cosmos 2333 Rocket - Pass Details

Date: 27 January 2021
Orbit: 839 x 863 km, 70.8° (Epoch: 27 February)

Event Time Altitude Azimuth Distance (km) Brightness Sun altitude
Exits shadow 05:46:35 19° 312° (NW) 1,935 3.6 -15.6°
Maximum altitude 05:47:52 20° 329° (NNW) 1,869 3.6 -15.4°
Drops below altitude 10° 05:51:59 10° 16° (NNE) 2,484 4.7 -14.7°
Sets 05:55:10 0° 33° (NNE) 3,427 5.7 -14.3°
